Location: Melizzano
(41.1500°N, 14.5000°E)
Time: 08:28:32
(UTC+00:00)

Cosmos 1818 - Pass Details

Date: 11 May 2021
Orbit: 771 x 802 km, 65.0° (Epoch: 20 June)

Event Time Altitude Azimuth Distance (km) Brightness Sun altitude
Rises 22:27:34 0° 325° (NW) 3,318 7.7 -30.3°
Reaches altitude 10° 22:30:01 10° 323° (NW) 2,384 6.7 -30.4°
Enters shadow 22:34:11 51° 304° (NW) 1,005 4.2 -30.5°
